SHT14M EGLL-EGJJ

Flight info

Callsign SHT14M
Flight time 0h 30m
Altitude 26000
Route GOGSI2G GOGSI N621 SAM N63 LELNA LELNA1K
Aircraft A319/M-SDE3FGIJ1KRWXY/LB1

Departure

Time 2026-05-04 10:06
Airport London Heathrow Airport (EGLL)

Arrival

Time 2026-05-04 10:36
Airport Jersey Airport (EGJJ)
Time Latitude Longitude Altitude Speed Heading
2026-05-04 09:49 51.46879 -0.43911 87 ft 0 kts 89°
2026-05-04 09:51 51.46879 -0.43912 87 ft 0 kts 89°
2026-05-04 10:00 51.46879 -0.43939 88 ft 3 kts 94°
2026-05-04 10:02 51.46912 -0.44057 91 ft 0 kts 179°
2026-05-04 10:04 51.46763 -0.44056 88 ft 14 kts 180°
2026-05-04 10:04 51.46655 -0.44056 87 ft 14 kts 180°
2026-05-04 10:04 51.46591 -0.44056 87 ft 10 kts 180°
2026-05-04 10:04 51.46507 -0.44062 86 ft 14 kts 200°
2026-05-04 10:05 51.46491 -0.44232 87 ft 26 kts 270°
2026-05-04 10:05 51.46490 -0.44949 89 ft 98 kts 269°
2026-05-04 10:05 51.46488 -0.46351 90 ft 154 kts 270°
2026-05-04 10:05 51.46474 -0.48176 539 ft 165 kts 271°
2026-05-04 10:06 51.46443 -0.50017 1276 ft 166 kts 269°
2026-05-04 10:06 51.46412 -0.51865 1771 ft 172 kts 270°
2026-05-04 10:06 51.46389 -0.53903 2133 ft 195 kts 270°
2026-05-04 10:08 51.45445 -0.70492 7080 ft 272 kts 268°
2026-05-04 10:08 51.45417 -0.73540 8114 ft 275 kts 268°
2026-05-04 10:08 51.45388 -0.76619 9107 ft 278 kts 267°
2026-05-04 10:08 51.45089 -0.79687 10042 ft 281 kts 250°
2026-05-04 10:09 51.44157 -0.82542 10482 ft 302 kts 230°
2026-05-04 10:09 51.42510 -0.84802 10767 ft 325 kts 215°
2026-05-04 10:09 51.40640 -0.87073 10996 ft 349 kts 216°
2026-05-04 10:09 51.38611 -0.89423 11175 ft 370 kts 215°
2026-05-04 10:10 51.36483 -0.91835 11701 ft 378 kts 214°
2026-05-04 10:10 51.34319 -0.94267 12393 ft 383 kts 214°
2026-05-04 10:10 51.32126 -0.96719 13067 ft 387 kts 214°
2026-05-04 10:10 51.29905 -0.99179 13744 ft 391 kts 214°
2026-05-04 10:11 51.27644 -1.01643 14368 ft 395 kts 213°
2026-05-04 10:11 51.25343 -1.04058 15012 ft 398 kts 212°
2026-05-04 10:11 51.23006 -1.06451 15650 ft 400 kts 212°
2026-05-04 10:11 51.20647 -1.08842 16268 ft 403 kts 212°
2026-05-04 10:12 51.18270 -1.11253 16869 ft 406 kts 212°
2026-05-04 10:12 51.15879 -1.13686 17456 ft 409 kts 212°
2026-05-04 10:12 51.13475 -1.16142 18038 ft 412 kts 212°
2026-05-04 10:12 51.11046 -1.18632 18571 ft 415 kts 212°
2026-05-04 10:13 51.08641 -1.21099 19069 ft 418 kts 212°
2026-05-04 10:13 51.06190 -1.23610 19573 ft 420 kts 212°
2026-05-04 10:13 51.03725 -1.26130 20053 ft 423 kts 212°
2026-05-04 10:13 51.01240 -1.28669 20547 ft 425 kts 212°
2026-05-04 10:14 50.98749 -1.31209 21022 ft 428 kts 212°
2026-05-04 10:14 50.96239 -1.33763 21461 ft 430 kts 212°
2026-05-04 10:16 50.77262 -1.49070 24154 ft 444 kts 206°
2026-05-04 10:16 50.74498 -1.51258 24497 ft 445 kts 206°
2026-05-04 10:16 50.71725 -1.53453 24830 ft 446 kts 206°
2026-05-04 10:16 50.68947 -1.55652 25159 ft 447 kts 206°
2026-05-04 10:17 50.66164 -1.57854 25474 ft 448 kts 206°
2026-05-04 10:17 50.63368 -1.60057 25789 ft 449 kts 206°
2026-05-04 10:19 50.43963 -1.75312 26022 ft 445 kts 206°
2026-05-04 10:19 50.41193 -1.77471 26027 ft 445 kts 206°
2026-05-04 10:19 50.38420 -1.79633 26034 ft 445 kts 206°
2026-05-04 10:19 50.35647 -1.81794 25833 ft 445 kts 206°
2026-05-04 10:20 50.32867 -1.83954 25586 ft 446 kts 205°
2026-05-04 10:20 50.30081 -1.86113 25334 ft 447 kts 205°
2026-05-04 10:20 50.27292 -1.88272 25090 ft 448 kts 205°
2026-05-04 10:20 50.24496 -1.90439 24849 ft 449 kts 205°
2026-05-04 10:21 50.21697 -1.92605 24605 ft 450 kts 205°
2026-05-04 10:21 50.18888 -1.94778 24367 ft 451 kts 205°
2026-05-04 10:21 50.16077 -1.96951 24128 ft 451 kts 205°
2026-05-04 10:21 50.13276 -1.99116 23199 ft 448 kts 205°
2026-05-04 10:22 50.07762 -2.03366 21017 ft 439 kts 205°
2026-05-04 10:22 50.05044 -2.05452 20068 ft 432 kts 205°
2026-05-04 10:22 50.02356 -2.07506 19127 ft 427 kts 205°
2026-05-04 10:23 49.99704 -2.09515 18186 ft 422 kts 204°
2026-05-04 10:23 49.96954 -2.11058 17153 ft 417 kts 194°
2026-05-04 10:25 49.78084 -2.17532 11306 ft 374 kts 192°
2026-05-04 10:25 49.75621 -2.18371 11166 ft 351 kts 192°
2026-05-04 10:25 49.73304 -2.19158 11039 ft 331 kts 192°
2026-05-04 10:25 49.71111 -2.19903 10915 ft 315 kts 192°
2026-05-04 10:26 49.69034 -2.20697 10791 ft 301 kts 194°
2026-05-04 10:26 49.67066 -2.21561 10663 ft 288 kts 196°
2026-05-04 10:26 49.65164 -2.22439 10417 ft 282 kts 196°
2026-05-04 10:26 49.63322 -2.23294 10172 ft 279 kts 196°
2026-05-04 10:27 49.61465 -2.24149 9953 ft 277 kts 196°
2026-05-04 10:27 49.59613 -2.24993 9827 ft 278 kts 195°
2026-05-04 10:27 49.57759 -2.25826 9691 ft 277 kts 195°
2026-05-04 10:27 49.55910 -2.26652 9557 ft 277 kts 195°
2026-05-04 10:28 49.54061 -2.27475 9350 ft 276 kts 195°
2026-05-04 10:28 49.52222 -2.28289 9139 ft 275 kts 195°
2026-05-04 10:28 49.50387 -2.29102 8892 ft 274 kts 195°
2026-05-04 10:28 49.48550 -2.29915 8433 ft 276 kts 195°
2026-05-04 10:29 49.46709 -2.30728 8042 ft 275 kts 196°
2026-05-04 10:29 49.44873 -2.31542 7670 ft 273 kts 196°
2026-05-04 10:29 49.43047 -2.32351 7295 ft 272 kts 196°
2026-05-04 10:29 49.41243 -2.33151 6824 ft 269 kts 196°
2026-05-04 10:30 49.39446 -2.33946 6272 ft 268 kts 196°
2026-05-04 10:30 49.37662 -2.34733 5711 ft 266 kts 196°
2026-05-04 10:30 49.35888 -2.35515 5151 ft 265 kts 196°
2026-05-04 10:30 49.34145 -2.36282 4598 ft 263 kts 196°
2026-05-04 10:31 49.32387 -2.37054 4033 ft 262 kts 196°
2026-05-04 10:31 49.30643 -2.37821 3455 ft 260 kts 196°
2026-05-04 10:32 49.21242 -2.39982 1674 ft 205 kts 139°
2026-05-04 10:33 49.20394 -2.38325 1614 ft 192 kts 120°
2026-05-04 10:33 49.19905 -2.36571 1728 ft 167 kts 109°
2026-05-04 10:33 49.19667 -2.34933 1700 ft 153 kts 97°
2026-05-04 10:33 49.19643 -2.33351 1555 ft 145 kts 91°
2026-05-04 10:34 49.19667 -2.31821 1432 ft 143 kts 88°
2026-05-04 10:34 49.19831 -2.30321 1234 ft 143 kts 78°
2026-05-04 10:34 49.20039 -2.28855 1090 ft 138 kts 82°
2026-05-04 10:34 49.20136 -2.27445 1126 ft 132 kts 86°
2026-05-04 10:35 49.20246 -2.26066 1016 ft 130 kts 84°
2026-05-04 10:35 49.20372 -2.24707 834 ft 129 kts 82°
2026-05-04 10:35 49.20476 -2.23363 668 ft 127 kts 83°
2026-05-04 10:35 49.20586 -2.22051 512 ft 125 kts 82°
2026-05-04 10:36 49.20695 -2.20737 332 ft 122 kts 80°
2026-05-04 10:36 49.20802 -2.19527 285 ft 90 kts 83°
2026-05-04 10:36 49.20847 -2.18959 282 ft 39 kts 82°
2026-05-04 10:36 49.20882 -2.18548 279 ft 28 kts 82°
2026-05-04 10:37 49.20842 -2.18380 279 ft 18 kts 160°
2026-05-04 10:37 49.20740 -2.18468 282 ft 19 kts 244°
2026-05-04 10:37 49.20719 -2.18677 286 ft 21 kts 263°
2026-05-04 10:37 49.20700 -2.18915 283 ft 24 kts 263°
2026-05-04 10:39 49.20558 -2.19700 280 ft 0 kts 173°